"Pseudo-MPEC" for P22nuCa

Created 2026 Jun 17 18:35:06 UT using Find_Orb

Click here for an explanation of pseudo-MPECs

 
 Astrometry: 
     P22nuCa*0C2026 06 16.35519014 55 30.220+08 07 37.41   ~6G9o 21.72wXNEOCPF52
     P22nuCa 0C2026 06 16.36625714 55 29.393+08 08 12.56   ~6G9o 21.50wXNEOCPF52
     P22nuCa 0C2026 06 16.37725714 55 28.520+08 08 47.47   ~6G9o 21.67wXNEOCPF52
     P22nuCa 0C2026 06 16.43906114 55 23.836+08 12 04.12   ~6GGo 21.43GVNEOCPF52
     P22nuCa 0C2026 06 16.43969414 55 23.796+08 12 05.90   ~6GGo 21.61GVNEOCPF52
     P22nuCa 2C2026 06 16.93827514 54 56.712+08 38 00.47   ~6HAZ 20.8 GXNEOCPJ04
     P22nuCa 2C2026 06 16.95853914 54 55.242+08 39 02.19   ~6HAZ 20.7 GXNEOCPJ04
     P22nuCa 2C2026 06 16.97880514 54 53.792+08 40 04.58   ~6HAZ 20.6 GXNEOCPJ04
     P22nuCa KC2026 06 17.11771614 54 47.00 +08 46 58.8    ~6H3Z 21.7 GVNEOCPH21
     P22nuCa KC2026 06 17.12782714 54 46.31 +08 47 29.7    ~6H3Z 21.8 GVNEOCPH21
     P22nuCa KC2026 06 17.13148514 54 46.06 +08 47 41.0    ~6H3Z 21.5 GVNEOCPH21
     P22nuCa  C2026 06 17.18968714 54 42.822+08 50 39.77   ~6H5K 21.5 GWNEOCPH01
     P22nuCa  C2026 06 17.19513314 54 42.434+08 50 56.14   ~6H5K 21.5 GWNEOCPH01
     P22nuCa  C2026 06 17.20395014 54 41.823+08 51 22.60   ~6H5K 21.4 GWNEOCPH01
     P22nuCa  C2026 06 17.21167514 54 41.274+08 51 45.88   ~6H5K 21.6 GWNEOCPH01

Station data:
(F52) Pan-STARRS 2, Haleakala  (N20.707382 W156.255910)  US/Hawaii.
   Observers J. Herman, T. Lowe, P. Minguez, A. Schultz, I. Smith. Measurers
   K. Chambers, T. de Boer, J. Fairlamb, H. Gao, M. Huber, C.-C. Lin, E.
   Magnier, Y. Ramanjooloo, R. Wainscoat, R. Weryk. 1.8-m Ritchey-Chrétien +
   CCD.
(H01) Magdalena Ridge Observatory, Socorro  (N33.984833 W107.189333)  US/New
   Mexico.  Observers W. H. Ryan, E. V. Ryan. Measurer W. H. Ryan. 2.4-m
   f/8.9 reflector + CCD.
(H21) Astronomical Research Observatory, Westfield  (N39.483054 W87.968270)
   US/Illinois.  Observer R. Holmes. Measurers S. Foglia, L. Buzzi, T.
   Linder, R. Holmes. 0.40-m f/5.32 astrograph + CCD.
(J04) ESA Optical Ground Station, Tenerife  (N28.300957 W16.511820)  Canary
   Islands (Spain).  Observer M. Micheli. Measurers M. Micheli, D. Koschny,
   E. Schwab, M. Busch, A. Knöfel. 1.0-m f/4.4 reflector + CCD.

Orbital elements:  P22nuCa
   Perihelion 2026 Jan 27.179651 +/- 2.11 TT =  4:18:41.8 (JD 2461067.679651)
Epoch 2026 Jun 17.0 TT = JDT 2461208.5   Earth MOID: 0.1012   Ve: 0.0848
M 165.352351398 +/- 1.5             (J2000 ecliptic)             AutoNEOCP
n   1.174207797 +/- 0.00694         Peri.  199.747658 +/- 0.6
a   0.889828017 +/- 0.00351         Node   248.303204 +/- 0.15
e   0.29475708 +/- 0.00682          Incl.   20.696124 +/- 0.41
P   0.839/306.584d         H 23.18  G  0.15   U  9.4
q 0.627544902 +/- 0.00848    Q 1.152111132 +/- 0.00209
From 15 observations 2026 June 16-17 (20.6 hr); mean residual 0".20
Residuals in arcseconds: 
260616 F52  .24-  .21+    260616 J04  .09-  .03-    260617 H21  .15-  .36+    
260616 F52  .32+  .03-    260616 J04  .05+  .32-    260617 H01  .20+  .08-    
260616 F52  .06+  .24-    260616 J04  .32+  .24+    260617 H01  .12+  .08-    
260616 F52  .12-  .14+    260617 H21  .44-  .20-    260617 H01  .23+  .08-    
260616 F52  .03-  .08-    260617 H21  .22-  .12+    260617 H01  .10+  .04+    

Ephemerides (geocentric):
Date (UTC) HH   RA             Dec           delta  r     elong  mag " sig PA
---- --------  ------------   ------------  ------ ------ -----  --- --------
2026 06 17 19  14 54 11.406   +09 20 27.04  .19943 1.1476 127.2 21.7 .543 168
2026 06 17 20  14 54 09.316   +09 22 26.41  .19968 1.1477 127.2 21.7 .573 168
2026 06 17 21  14 54 07.238   +09 24 25.40  .19993 1.1477 127.1 21.7 .603 168
2026 06 17 22  14 54 05.172   +09 26 24.00  .20019 1.1477 127.0 21.7 .634 167
2026 06 17 23  14 54 03.117   +09 28 22.23  .20044 1.1478 127.0 21.7 .665 167
2026 06 18 00  14 54 01.073   +09 30 20.07  .20069 1.1478 126.9 21.7 .698 167
2026 06 18 01  14 53 59.042   +09 32 17.53  .20095 1.1478 126.9 21.7 .731 167
2026 06 18 02  14 53 57.021   +09 34 14.62  .20120 1.1478 126.8 21.7 .765 166
2026 06 18 03  14 53 55.013   +09 36 11.34  .20145 1.1479 126.7 21.7 .799 166
2026 06 18 04  14 53 53.015   +09 38 07.68  .20171 1.1479 126.7 21.7 .835 166
2026 06 18 05  14 53 51.029   +09 40 03.64  .20196 1.1479 126.6 21.7 .871 166
2026 06 18 06  14 53 49.055   +09 41 59.24  .20222 1.1480 126.6 21.7 .908 166
2026 06 18 07  14 53 47.092   +09 43 54.46  .20247 1.1480 126.5 21.7 .945 166
2026 06 18 08  14 53 45.140   +09 45 49.32  .20272 1.1480 126.4 21.7 .983 166
2026 06 18 09  14 53 43.200   +09 47 43.81  .20298 1.1481 126.4 21.7 1.02 166
2026 06 18 10  14 53 41.270   +09 49 37.93  .20323 1.1481 126.3 21.8 1.06 166
2026 06 18 11  14 53 39.352   +09 51 31.68  .20349 1.1481 126.3 21.8 1.10 166
2026 06 18 12  14 53 37.445   +09 53 25.07  .20374 1.1482 126.2 21.8 1.14 166
2026 06 18 13  14 53 35.550   +09 55 18.10  .20400 1.1482 126.1 21.8 1.18 166
2026 06 18 14  14 53 33.665   +09 57 10.77  .20425 1.1482 126.1 21.8 1.23 166
2026 06 18 15  14 53 31.792   +09 59 03.07  .20451 1.1482 126.0 21.8 1.27 166
2026 06 18 16  14 53 29.930   +10 00 55.02  .20476 1.1483 126.0 21.8 1.31 166
2026 06 18 17  14 53 28.078   +10 02 46.61  .20502 1.1483 125.9 21.8 1.36 166
2026 06 18 18  14 53 26.238   +10 04 37.84  .20527 1.1483 125.8 21.8 1.40 166
2026 06 18 19  14 53 24.409   +10 06 28.72  .20553 1.1484 125.8 21.8 1.45 166
2026 06 18 20  14 53 22.591   +10 08 19.24  .20578 1.1484 125.7 21.8 1.49 166
2026 06 18 21  14 53 20.783   +10 10 09.41  .20604 1.1484 125.7 21.8 1.54 166
2026 06 18 22  14 53 18.987   +10 11 59.23  .20629 1.1484 125.6 21.8 1.59 166
2026 06 18 23  14 53 17.201   +10 13 48.70  .20655 1.1485 125.5 21.8 1.64 166
2026 06 19 00  14 53 15.427   +10 15 37.82  .20680 1.1485 125.5 21.8 1.68 166
2026 06 19 01  14 53 13.663   +10 17 26.59  .20706 1.1485 125.4 21.8 1.73 166
2026 06 19 02  14 53 11.910   +10 19 15.01  .20731 1.1486 125.4 21.8 1.78 166
2026 06 19 03  14 53 10.167   +10 21 03.08  .20757 1.1486 125.3 21.8 1.83 166
2026 06 19 04  14 53 08.435   +10 22 50.82  .20783 1.1486 125.3 21.8 1.88 166
2026 06 19 05  14 53 06.714   +10 24 38.20  .20808 1.1486 125.2 21.8 1.93 166
2026 06 19 06  14 53 05.004   +10 26 25.25  .20834 1.1487 125.1 21.8 1.99 166
2026 06 19 07  14 53 03.304   +10 28 11.95  .20859 1.1487 125.1 21.8 2.04 166
2026 06 19 08  14 53 01.615   +10 29 58.32  .20885 1.1487 125.0 21.8 2.09 166
2026 06 19 09  14 52 59.937   +10 31 44.34  .20911 1.1488 125.0 21.8 2.15 166
2026 06 19 10  14 52 58.269   +10 33 30.03  .20936 1.1488 124.9 21.8 2.20 167
2026 06 19 11  14 52 56.611   +10 35 15.38  .20962 1.1488 124.9 21.9 2.25 167
2026 06 19 12  14 52 54.964   +10 37 00.40  .20988 1.1488 124.8 21.9 2.31 167
2026 06 19 13  14 52 53.328   +10 38 45.08  .21013 1.1489 124.7 21.9 2.36 167
2026 06 19 14  14 52 51.702   +10 40 29.42  .21039 1.1489 124.7 21.9 2.42 167
2026 06 19 15  14 52 50.086   +10 42 13.44  .21065 1.1489 124.6 21.9 2.48 167
2026 06 19 16  14 52 48.481   +10 43 57.12  .21090 1.1490 124.6 21.9 2.53 167
2026 06 19 17  14 52 46.886   +10 45 40.48  .21116 1.1490 124.5 21.9 2.59 167
2026 06 19 18  14 52 45.301   +10 47 23.50  .21142 1.1490 124.5 21.9 2.65 167